Previsão horária em Abramenki

Hoje, 16 Maio, Domingo

Tempo Temperatura Precipitação Vento Pressão Humidade
00:00 +11°C° 0 mm 3 m/s 740 mmHg 97%
01:00 +12°C° 0 mm 2 m/s 740 mmHg 97%
02:00 +10°C° 0 mm 2 m/s 740 mmHg 98%
03:00 +12°C° 0.1 mm 2 m/s 741 mmHg 97%
04:00 +12°C° 0.1 mm 2 m/s 741 mmHg 97%
05:00 +12°C° 0.1 mm 2 m/s 741 mmHg 97%
06:00 +13°C° 0.1 mm 2 m/s 741 mmHg 93%
07:00 +14°C° 0.1 mm 2 m/s 742 mmHg 89%
08:00 +16°C° 0 mm 2 m/s 742 mmHg 85%
09:00 +17°C° 0.1 mm 2 m/s 742 mmHg 79%
10:00 +18°C° 0.1 mm 2 m/s 742 mmHg 73%
11:00 +20°C° 0.1 mm 2 m/s 743 mmHg 67%
12:00 +20°C° 0.2 mm 2 m/s 743 mmHg 64%
13:00 +20°C° 0.2 mm 2 m/s 743 mmHg 61%
14:00 +21°C° 0.2 mm 2 m/s 743 mmHg 58%
15:00 +20°C° 0.1 mm 2 m/s 743 mmHg 62%
16:00 +20°C° 0.1 mm 2 m/s 743 mmHg 65%
17:00 +20°C° 0.1 mm 2 m/s 743 mmHg 69%
18:00 +18°C° 0 mm 2 m/s 743 mmHg 75%
19:00 +17°C° 0 mm 2 m/s 743 mmHg 81%
20:00 +15°C° 0 mm 2 m/s 743 mmHg 87%
21:00 +15°C° 0 mm 2 m/s 743 mmHg 89%
22:00 +14°C° 0 mm 2 m/s 743 mmHg 91%
23:00 +14°C° 0 mm 2 m/s 743 mmHg 93%

Amanhã, 17 Maio, Segunda-feira

Tempo Temperatura Precipitação Vento Pressão Humidade
00:00 +13°C° 0 mm 2 m/s 743 mmHg 93%
01:00 +13°C° 0 mm 2 m/s 743 mmHg 94%
02:00 +13°C° 0 mm 2 m/s 743 mmHg 94%
03:00 +13°C° 0 mm 2 m/s 743 mmHg 94%
04:00 +13°C° 0 mm 2 m/s 743 mmHg 93%
05:00 +13°C° 0 mm 2 m/s 743 mmHg 92%
06:00 +14°C° 0 mm 3 m/s 743 mmHg 86%
07:00 +16°C° 0 mm 3 m/s 743 mmHg 80%
08:00 +18°C° 0 mm 3 m/s 743 mmHg 74%
09:00 +19°C° 0 mm 4 m/s 742 mmHg 70%
10:00 +20°C° 0 mm 4 m/s 742 mmHg 67%
11:00 +22°C° 0 mm 4 m/s 741 mmHg 63%
12:00 +23°C° 0 mm 4 m/s 741 mmHg 63%
13:00 +25°C° 0 mm 5 m/s 740 mmHg 62%
14:00 +25°C° 0 mm 5 m/s 740 mmHg 61%
15:00 +25°C° 0 mm 5 m/s 739 mmHg 62%
16:00 +25°C° 0 mm 5 m/s 738 mmHg 64%
17:00 +25°C° 0 mm 5 m/s 738 mmHg 65%
18:00 +23°C° 0 mm 5 m/s 738 mmHg 68%
19:00 +22°C° 0 mm 5 m/s 738 mmHg 71%
20:00 +21°C° 0 mm 5 m/s 737 mmHg 73%
21:00 +20°C° 0 mm 5 m/s 737 mmHg 75%
22:00 +19°C° 0 mm 5 m/s 737 mmHg 77%
23:00 +19°C° 0 mm 5 m/s 737 mmHg 79%

Depois de amanhã, 18 Maio, Terça-feira

Tempo Temperatura Precipitação Vento Pressão Humidade
00:00 +17°C° 0 mm 5 m/s 736 mmHg 82%
01:00 +17°C° 0 mm 5 m/s 736 mmHg 85%
02:00 +16°C° 0 mm 5 m/s 736 mmHg 88%
03:00 +16°C° 0 mm 5 m/s 736 mmHg 89%
04:00 +16°C° 0 mm 5 m/s 736 mmHg 91%
05:00 +16°C° 0 mm 6 m/s 736 mmHg 92%
06:00 +16°C° 0.1 mm 6 m/s 736 mmHg 91%
07:00 +17°C° 0.1 mm 6 m/s 736 mmHg 89%
08:00 +17°C° 0.1 mm 6 m/s 736 mmHg 87%
09:00 +19°C° 0 mm 6 m/s 737 mmHg 81%
10:00 +20°C° 0 mm 6 m/s 737 mmHg 74%
11:00 +21°C° 0 mm 6 m/s 738 mmHg 67%
12:00 +21°C° 0 mm 5 m/s 738 mmHg 64%
13:00 +22°C° 0 mm 4 m/s 738 mmHg 61%
14:00 +22°C° 0 mm 4 m/s 738 mmHg 58%
15:00 +22°C° 0 mm 3 m/s 738 mmHg 63%
16:00 +21°C° 0 mm 2 m/s 738 mmHg 67%
17:00 +21°C° 0 mm 2 m/s 737 mmHg 72%
18:00 +20°C° 0.6 mm 3 m/s 738 mmHg 78%
19:00 +18°C° 0.6 mm 3 m/s 738 mmHg 83%
20:00 +17°C° 0.6 mm 4 m/s 738 mmHg 89%
21:00 +17°C° 0.1 mm 3 m/s 738 mmHg 90%
22:00 +16°C° 0.1 mm 3 m/s 737 mmHg 92%
23:00 +16°C° 0.1 mm 2 m/s 737 mmHg 94%

19 Maio, Quarta-feira

Tempo Temperatura Precipitação Vento Pressão Humidade
00:00 +16°C° 0 mm 2 m/s 737 mmHg 93%
01:00 +15°C° 0 mm 2 m/s 737 mmHg 93%
02:00 +15°C° 0 mm 2 m/s 737 mmHg 93%
03:00 +15°C° 0.2 mm 2 m/s 736 mmHg 94%
04:00 +15°C° 0.2 mm 2 m/s 736 mmHg 95%
05:00 +15°C° 0.2 mm 2 m/s 736 mmHg 96%
06:00 +19°C° 0.2 mm 3 m/s 736 mmHg 76%
07:00 +17°C° 0.2 mm 2 m/s 735 mmHg 86%
08:00 +16°C° 0.2 mm 2 m/s 735 mmHg 96%
09:00 +19°C° 0.1 mm 4 m/s 737 mmHg 79%
10:00 +20°C° 0.1 mm 4 m/s 737 mmHg 73%
11:00 +20°C° 0.1 mm 4 m/s 737 mmHg 67%
12:00 +19°C° 0.3 mm 5 m/s 735 mmHg 82%
13:00 +19°C° 0.3 mm 5 m/s 735 mmHg 77%
14:00 +20°C° 0.3 mm 5 m/s 735 mmHg 73%
15:00 +17°C° 0.3 mm 2 m/s 735 mmHg 90%
16:00 +18°C° 0.3 mm 3 m/s 736 mmHg 83%
17:00 +19°C° 0.3 mm 4 m/s 737 mmHg 77%
18:00 +18°C° 0.1 mm 3 m/s 737 mmHg 81%
19:00 +16°C° 0.1 mm 2 m/s 737 mmHg 85%
20:00 +15°C° 0.1 mm 2 m/s 737 mmHg 88%
21:00 +15°C° 0 mm 1 m/s 737 mmHg 89%
22:00 +14°C° 0 mm 1 m/s 737 mmHg 89%
23:00 +14°C° 0 mm 1 m/s 737 mmHg 90%

20 Maio, Quinta-feira

Tempo Temperatura Precipitação Vento Pressão Humidade
00:00 +14°C° 0.3 mm 1 m/s 736 mmHg 91%
01:00 +14°C° 0.3 mm 1 m/s 736 mmHg 92%
02:00 +14°C° 0.3 mm 1 m/s 736 mmHg 94%
03:00 +14°C° 0.6 mm 1 m/s 736 mmHg 95%
04:00 +13°C° 0.6 mm 1 m/s 736 mmHg 96%
05:00 +13°C° 0.6 mm 1 m/s 736 mmHg 97%
06:00 +13°C° 0.3 mm 2 m/s 736 mmHg 95%
07:00 +13°C° 0.3 mm 2 m/s 736 mmHg 93%
08:00 +14°C° 0.3 mm 2 m/s 736 mmHg 91%
09:00 +13°C° 0.2 mm 3 m/s 737 mmHg 91%
10:00 +13°C° 0.2 mm 3 m/s 737 mmHg 90%
11:00 +13°C° 0.2 mm 3 m/s 737 mmHg 90%
12:00 +13°C° 0.1 mm 4 m/s 738 mmHg 90%
13:00 +12°C° 0.1 mm 4 m/s 738 mmHg 91%
14:00 +10°C° 0.1 mm 5 m/s 739 mmHg 92%
15:00 +10°C° 0 mm 5 m/s 739 mmHg 92%
16:00 +11°C° 0 mm 4 m/s 740 mmHg 93%
17:00 +11°C° 0 mm 4 m/s 740 mmHg 93%
18:00 +10°C° 0 mm 4 m/s 741 mmHg 94%
19:00 +10°C° 0 mm 3 m/s 741 mmHg 95%
20:00 +9°C° 0 mm 3 m/s 742 mmHg 95%
21:00 +9°C° 0 mm 3 m/s 742 mmHg 96%
22:00 +9°C° 0 mm 2 m/s 742 mmHg 96%
23:00 +8°C° 0 mm 2 m/s 743 mmHg 96%

21 Maio, Sexta-feira

Tempo Temperatura Precipitação Vento Pressão Humidade
00:00 +8°C° 0 mm 2 m/s 743 mmHg 95%
01:00 +9°C° 0 mm 1 m/s 743 mmHg 95%
02:00 +10°C° 0 mm 1 m/s 743 mmHg 94%
03:00 +10°C° 0 mm 1 m/s 743 mmHg 94%
04:00 +10°C° 0 mm 1 m/s 743 mmHg 93%
05:00 +9°C° 0 mm 2 m/s 743 mmHg 92%
06:00 +10°C° 0.5 mm 2 m/s 743 mmHg 93%
07:00 +10°C° 0.5 mm 3 m/s 743 mmHg 95%
08:00 +11°C° 0.5 mm 3 m/s 742 mmHg 96%
09:00 +11°C° 1.4 mm 4 m/s 742 mmHg 96%
10:00 +10°C° 1.4 mm 5 m/s 742 mmHg 96%
11:00 +12°C° 1.4 mm 5 m/s 741 mmHg 96%
12:00 +12°C° 1.5 mm 5 m/s 741 mmHg 96%
13:00 +12°C° 1.5 mm 5 m/s 741 mmHg 95%
14:00 +12°C° 1.5 mm 5 m/s 740 mmHg 95%
15:00 +12°C° 1.4 mm 5 m/s 740 mmHg 96%
16:00 +11°C° 1.4 mm 4 m/s 740 mmHg 96%
17:00 +11°C° 1.4 mm 3 m/s 740 mmHg 96%
18:00 +11°C° 0.3 mm 4 m/s 740 mmHg 96%
19:00 +10°C° 0.3 mm 4 m/s 741 mmHg 96%
20:00 +9°C° 0.3 mm 5 m/s 741 mmHg 95%
21:00 +8°C° 0 mm 4 m/s 742 mmHg 96%
22:00 +7°C° 0 mm 4 m/s 743 mmHg 96%
23:00 +6°C° 0 mm 4 m/s 744 mmHg 97%
Mostrar mais

Necessitamos do seu Consentimento

A Meteoprog e os seus Fornecedores de Serviços podem armazenar e aceder a dados pessoais como cookies, identificadores do dispositivo ou outras tecnologias semelhantes existentes no seu dispositivo e processar estes dados para personalizar conteúdos e anúncios, assim como funcionalidades nas redes sociais e análise de tráfego.

  • Armazenar e/ou aceder a informações no seu dispositivo

    Os cookies, identificadores do dispositivo ou outras informações podem ser armazenados ou acedidos no seu dispositivo, para os fins acima indicados.

  • Anúncios e conteúdos personalizados, medição de anúncios e conteúdos, dados sobre o público-alvo e desenvolvimento de produtos

    Os anúncios e os conteúdos podem ser personalizados com base num perfil. Podem ser adicionados dados adicionais para uma maior personalização dos anúncios e dos conteúdos. A eficácia dos anúncios e dos conteúdos pode ser medida. Podem ser obtidas informações sobre o público que visualizou os anúncios e os conteúdos. Estes dados podem ser usados para desenvolver ou melhorar sistemas, softwares ou a experiência do utilizador.

Ao clicar em "Eu concordo”, permitirá o uso de cookies, identificadores do dispositivo e web beacons mencionados ou outras tecnologias semelhantes. As configurações do navegador do seu dispositivo podem ser alteradas.

Para certos fins, podem ser invocados interesses legítimos ao invés de consentimento. Pode ler mais informação sobre este assunto na nossa Política de Privacidade e Cookies.